HULIANWANG DIGUI 5B

Last updated on Thu Aug 14 2025 00:02:07 GMT+0000 (Coordinated Universal Time)

1 64957U 25159B 25224.70851526 .00000133 00000+0 14614-3 0 9997 2 64957 86.4982 27.0642 0001462 96.4029 263.7294 13.64395870 2218
UTC large
Height (km)
Speed (km/s)
/
Latitude / Longitude
Inclination (degrees)
Orbital Period (minutes)
Azimuth
Elevation
Range (km)
Doppler Factor

Next 0 passes for location: London (51.5072 / 0.1276)

Sorry there are no passes over London.